Date String (YYYY-MM-DD hh:mm:ss) UTC,Instrument flags,Ambient pressure (hPa),Sample flow (lpm),Bypass flow (lpm),Sample temperature (°C),Ambient temperature (°C),ASC tube jacket temperature (°C),LED temperature (°C),Box temperature (°C),Sample RH (%),Span deviation,Mass concentration (μg/m³),Mass concentration (μg/m³),Mass concentration (μg/m³)
DateTimeUTC,F1_M11,P_M11,Q1_M11,Q2_M11,T1_M11,T2_M11,T3_M11,T4_M11,T5_M11,U1_M11,ZSPAN_M11,X0_M11,X2_M11,X1_M11
2022-02-28 19:00:00,,0829.5,5.01,0.00,26.0,25.2,00.0,34.9,27.8,07.8,0000.0,0009.78,0003.04,0002.06
2022-02-28 19:01:00,,0829.5,5.00,0.00,26.0,25.2,00.0,34.9,27.8,08.4,0000.0,0010.18,0003.00,0002.04
2022-02-28 19:02:00,,0829.5,5.00,0.00,26.0,25.2,00.0,35.0,27.8,08.0,0000.0,0010.33,0002.98,0002.06
2022-02-28 19:03:00,,0829.5,5.01,0.00,26.0,25.2,00.0,35.0,27.8,08.1,0000.0,0010.13,0003.01,0002.10
2022-02-28 19:04:00,,0829.5,4.98,0.00,26.0,25.2,00.0,34.9,27.8,08.4,0000.0,0010.31,0003.09,0002.13
2022-02-28 19:05:00,,0829.5,5.00,0.00,26.0,25.2,00.0,34.9,27.7,08.6,0000.0,0010.40,0003.16,0002.18
2022-02-28 19:06:00,,0829.5,4.99,0.00,26.0,25.2,00.0,34.9,27.7,08.0,0000.0,0010.14,0003.16,0002.20
2022-02-28 19:07:00,,0829.5,5.01,0.00,26.0,25.2,00.0,34.9,27.7,08.3,0000.0,0009.30,0003.20,0002.26
2022-02-28 19:08:00,,0829.4,5.00,0.00,26.0,25.2,00.0,34.9,27.8,08.1,0000.0,0008.93,0003.22,0002.32
2022-02-28 19:09:00,,0829.3,5.01,0.00,26.0,25.2,00.0,35.0,27.7,08.5,0000.0,0008.92,0003.25,0002.36
2022-02-28 19:10:00,,0829.3,4.98,0.00,26.0,25.2,00.0,34.9,27.7,08.7,0000.0,0009.37,0003.32,0002.44
2022-02-28 19:11:00,,0829.2,5.01,0.00,26.0,25.2,00.0,34.9,27.8,08.4,0000.0,0009.92,0003.38,0002.51
2022-02-28 19:12:00,,0829.4,5.00,0.00,26.0,25.2,00.0,34.9,27.8,08.2,0000.0,0009.55,0003.44,0002.57
2022-02-28 19:13:00,,0829.5,5.01,0.00,26.0,25.3,00.0,35.0,27.8,08.1,0000.0,0009.29,0003.48,0002.62
2022-02-28 19:14:00,,0829.3,5.00,0.00,26.0,25.3,00.0,35.0,27.8,08.0,0000.0,0009.09,0003.48,0002.66
2022-02-28 19:15:00,,0829.3,5.00,0.00,26.0,25.3,00.0,35.0,27.9,08.5,0000.0,0008.87,0003.48,0002.69
2022-02-28 19:16:00,,0829.4,4.99,0.00,26.0,25.3,00.0,35.0,27.9,08.5,0000.0,0008.66,0003.49,0002.74
2022-02-28 19:17:00,,0829.4,4.98,0.00,26.0,25.3,00.0,35.0,27.8,08.7,0000.0,0009.26,0003.52,0002.80
2022-02-28 19:18:00,,0829.6,5.00,0.00,26.1,25.3,00.0,35.0,27.9,09.0,0000.0,0009.89,0003.56,0002.86
2022-02-28 19:19:00,,0829.4,5.00,0.00,26.1,25.3,00.0,35.0,27.9,08.9,0000.0,0010.40,0003.64,0002.95
2022-02-28 19:20:00,,0829.3,5.00,0.00,26.1,25.4,00.0,35.0,27.9,09.3,0000.0,0010.35,0003.72,0003.10
2022-02-28 19:21:00,,0829.2,5.01,0.00,26.1,25.4,00.0,35.0,27.9,09.2,0000.0,0009.53,0003.74,0003.16
2022-02-28 19:22:00,,0829.3,5.00,0.00,26.1,25.3,00.0,35.0,27.9,08.8,0000.0,0009.05,0003.80,0003.22
2022-02-28 19:23:00,,0829.3,5.00,0.00,26.1,25.3,00.0,35.0,27.9,09.0,0000.0,0009.85,0003.86,0003.28
2022-02-28 19:24:00,,0829.4,4.99,0.00,26.1,25.4,00.0,35.0,27.9,09.5,0000.0,0010.38,0003.97,0003.32
2022-02-28 19:25:00,,0829.4,4.99,0.00,26.1,25.4,00.0,35.0,27.9,08.7,0000.0,0010.59,0004.06,0003.38
2022-02-28 19:26:00,,0829.4,5.00,0.00,26.1,25.4,00.0,35.0,27.9,08.7,0000.0,0011.67,0004.16,0003.45
2022-02-28 19:27:00,,0829.3,5.00,0.00,26.1,25.4,00.0,35.0,27.9,08.8,0000.0,0012.61,0004.23,0003.51
2022-02-28 19:28:00,,0829.4,5.00,0.00,26.1,25.4,00.0,35.0,27.9,09.2,0000.0,0012.52,0004.32,0003.58
2022-02-28 19:29:00,,0829.4,5.01,0.00,26.1,25.4,00.0,35.0,27.9,10.0,0000.0,0012.66,0004.45,0003.67
2022-02-28 19:30:00,,0829.3,5.00,0.00,26.1,25.4,00.0,35.0,28.0,09.8,0000.0,0012.37,0004.57,0003.79
2022-02-28 19:31:00,,0829.2,5.01,0.00,26.1,25.4,00.0,35.0,28.0,09.7,0000.0,0012.74,0004.73,0003.91
2022-02-28 19:32:00,,0829.6,5.00,0.00,26.1,25.4,00.0,35.0,27.9,09.9,0000.0,0013.60,0004.92,0004.08
2022-02-28 19:33:00,,0829.2,4.99,0.00,26.1,25.3,00.0,35.0,27.9,09.6,0000.0,0013.81,0005.10,0004.24
2022-02-28 19:34:00,,0829.2,4.99,0.00,26.0,25.3,00.0,35.0,27.9,09.9,0000.0,0013.56,0005.27,0004.44
2022-02-28 19:35:00,,0829.2,4.99,0.00,26.0,25.3,00.0,35.0,27.9,09.8,0000.0,0013.13,0005.50,0004.67
2022-02-28 19:36:00,,0829.2,5.00,0.00,26.0,25.3,00.0,35.0,27.9,09.9,0000.0,0013.36,0005.71,0004.85
2022-02-28 19:37:00,,0829.2,5.00,0.00,26.0,25.4,00.0,35.0,27.9,09.6,0000.0,0013.16,0005.88,0005.01
2022-02-28 19:38:00,,0829.2,5.00,0.00,26.1,25.4,00.0,35.0,27.9,09.3,0000.0,0011.88,0006.03,0005.14
2022-02-28 19:39:00,,0829.2,5.00,0.00,26.1,25.4,00.0,35.0,27.9,09.1,0000.0,0012.24,0006.12,0005.23
2022-02-28 19:40:00,,0829.2,4.99,0.00,26.1,25.4,00.0,35.0,27.9,08.9,0000.0,0011.89,0006.17,0005.29
2022-02-28 19:41:00,,0829.1,4.99,0.00,26.1,25.5,00.0,35.0,28.0,09.1,0000.0,0011.89,0006.22,0005.33
2022-02-28 19:42:00,,0829.1,5.00,0.00,26.1,25.5,00.0,35.0,28.0,09.4,0000.0,0012.09,0006.22,0005.35
2022-02-28 19:43:00,,0829.1,4.99,0.00,26.1,25.5,00.0,35.0,28.0,09.4,0000.0,0012.13,0006.16,0005.29
2022-02-28 19:44:00,,0829.1,5.01,0.00,26.2,25.6,00.0,35.0,28.1,09.4,0000.0,0012.66,0006.11,0005.23
2022-02-28 19:45:00,,0829.0,4.98,0.00,26.2,25.6,00.0,35.1,28.1,09.9,0000.0,0013.22,0006.12,0005.19
2022-02-28 19:46:00,,0829.1,5.00,0.00,26.2,25.6,00.0,35.1,28.1,09.6,0000.0,0013.50,0006.07,0005.14
2022-02-28 19:47:00,,0829.1,5.01,0.00,26.2,25.6,00.0,35.1,28.1,10.1,0000.0,0013.91,0006.04,0005.14
2022-02-28 19:48:00,,0829.0,5.01,0.00,26.2,25.6,00.0,35.1,28.1,10.2,0000.0,0014.11,0006.12,0005.20
2022-02-28 19:49:00,,0829.0,4.99,0.00,26.2,25.7,00.0,35.1,28.1,09.7,0000.0,0014.25,0006.15,0005.26
2022-02-28 19:50:00,,0828.9,5.01,0.00,26.2,25.7,00.0,35.1,28.1,10.2,0000.0,0013.56,0006.24,0005.34
2022-02-28 19:51:00,,0828.8,5.00,0.00,26.2,25.7,00.0,35.1,28.1,10.7,0000.0,0014.15,0006.36,0005.47
2022-02-28 19:52:00,,0828.8,5.00,0.00,26.3,25.7,00.0,35.1,28.2,10.5,0000.0,0014.34,0006.51,0005.63
2022-02-28 19:53:00,,0828.8,4.99,0.00,26.3,25.7,00.0,35.1,28.2,10.3,0000.0,0014.31,0006.72,0005.81
2022-02-28 19:54:00,,0828.8,5.00,0.00,26.3,25.7,00.0,35.1,28.1,10.3,0000.0,0014.01,0006.89,0005.99
2022-02-28 19:55:00,,0828.8,5.01,0.00,26.3,25.7,00.0,35.2,28.2,09.8,0000.0,0013.84,0007.02,0006.12
2022-02-28 19:56:00,,0829.3,5.01,0.00,26.3,25.7,00.0,35.2,28.2,09.8,0000.0,0013.78,0007.09,0006.20
2022-02-28 19:57:00,,0829.3,5.01,0.00,26.3,25.7,00.0,35.2,28.2,10.5,0000.0,0013.75,0007.16,0006.29
2022-02-28 19:58:00,,0829.3,5.00,0.00,26.3,25.7,00.0,35.2,28.2,10.2,0000.0,0014.20,0007.21,0006.35
2022-02-28 19:59:00,,0829.2,5.01,0.00,26.3,25.7,00.0,35.2,28.2,10.0,0000.0,0014.91,0007.20,0006.36
